TimeEDT,TemperatureF,Dew PointF,Humidity,Sea Level PressureIn,VisibilityMPH,Wind Direction,Wind SpeedMPH,Gust SpeedMPH,PrecipitationIn,Events,Conditions,WindDirDegrees,DateUTC
12:45 AM,73.4,68.0,83,30.08,10.0,ENE,13.8,19.6,0.01,Rain,Light Rain,70,2012-04-29 04:45:00
12:53 AM,73.9,68.0,82,30.08,10.0,East,11.5,-,0.01,Rain,Light Rain,90,2012-04-29 04:53:00
1:53 AM,75.0,66.9,76,30.05,10.0,East,13.8,-,N/A,,Mostly Cloudy,90,2012-04-29 05:53:00
2:39 AM,69.8,68.0,94,30.05,3.0,East,12.7,23.0,0.15,Rain,Heavy Rain,100,2012-04-29 06:39:00
2:48 AM,69.8,69.8,100,30.04,4.0,East,10.4,-,0.20,Rain,Heavy Rain,100,2012-04-29 06:48:00
2:53 AM,70.0,69.1,97,30.04,5.0,ESE,8.1,-,0.22,Rain,Rain,110,2012-04-29 06:53:00
3:23 AM,71.6,71.6,100,30.03,10.0,East,5.8,-,0.02,Rain,Light Rain,80,2012-04-29 07:23:00
3:44 AM,69.8,68.0,94,30.03,3.0,ESE,15.0,23.0,0.22,Rain-Thunderstorm,Heavy Rain,110,2012-04-29 07:44:00
4:07 AM,69.8,68.0,94,30.02,7.0,ESE,12.7,23.0,0.04,Rain,Rain,110,2012-04-29 08:07:00
4:26 AM,71.6,69.8,94,30.01,5.0,East,13.8,-,0.14,Rain,Heavy Rain,100,2012-04-29 08:26:00
4:53 AM,72.0,70.0,93,30.01,8.0,East,12.7,-,0.23,Rain,Rain,80,2012-04-29 08:53:00
5:11 AM,71.6,69.8,94,30.01,8.0,East,11.5,-,0.04,Rain,Rain,80,2012-04-29 09:11:00
5:18 AM,71.6,69.8,94,30.01,5.0,ENE,13.8,-,0.10,Rain,Rain,70,2012-04-29 09:18:00
5:53 AM,71.1,70.0,96,30.03,6.0,ENE,15.0,20.7,0.22,Rain,Rain,60,2012-04-29 09:53:00
6:31 AM,71.6,69.8,94,30.03,9.0,NE,6.9,-,0.15,Rain-Thunderstorm,Rain,50,2012-04-29 10:31:00
6:43 AM,71.6,71.6,100,30.03,8.0,ENE,6.9,-,0.17,Rain,Rain,60,2012-04-29 10:43:00
6:53 AM,72.0,71.1,97,30.04,9.0,ENE,6.9,-,0.18,Rain,Light Rain,60,2012-04-29 10:53:00
7:25 AM,71.6,71.6,100,30.04,9.0,ENE,4.6,-,0.08,Rain,Light Rain,70,2012-04-29 11:25:00
7:31 AM,71.6,71.6,100,30.04,6.0,SE,12.7,16.1,0.10,Rain,Heavy Rain,130,2012-04-29 11:31:00
7:44 AM,71.6,71.6,100,30.05,3.0,East,11.5,20.7,0.24,Rain,Heavy Rain,100,2012-04-29 11:44:00
7:53 AM,71.1,71.1,100,30.05,4.0,East,12.7,-,0.33,Rain,Heavy Rain,100,2012-04-29 11:53:00
8:53 AM,72.0,71.1,97,30.06,10.0,ESE,17.3,25.3,0.15,Rain,Light Rain,110,2012-04-29 12:53:00
9:19 AM,71.6,71.6,100,30.06,2.5,East,16.1,28.8,0.16,Rain,Heavy Rain,90,2012-04-29 13:19:00
9:27 AM,71.6,71.6,100,30.06,2.0,East,16.1,24.2,0.24,Rain,Rain,80,2012-04-29 13:27:00
9:31 AM,71.6,71.6,100,30.06,3.0,East,16.1,26.5,0.27,Rain,Heavy Rain,80,2012-04-29 13:31:00
9:34 AM,71.6,71.6,100,30.07,2.5,East,19.6,27.6,0.39,Rain,Heavy Rain,90,2012-04-29 13:34:00
9:42 AM,69.8,69.8,100,30.07,1.2,East,18.4,27.6,0.55,Rain,Heavy Rain,80,2012-04-29 13:42:00
9:53 AM,70.0,-9999,N/A,30.08,1.0,East,19.6,31.1,0.86,Rain,Heavy Rain,100,2012-04-29 13:53:00
10:04 AM,69.8,-9999,N/A,30.07,3.0,East,12.7,-,0.07,Rain,Rain,90,2012-04-29 14:04:00
10:29 AM,71.6,-9999,N/A,30.08,7.0,ESE,18.4,-,0.13,Rain,Light Rain,110,2012-04-29 14:29:00
10:53 AM,71.1,-9999,N/A,30.09,6.0,ESE,18.4,24.2,0.17,Rain,Rain,110,2012-04-29 14:53:00
11:53 AM,72.0,72.0,100,30.09,7.0,ESE,13.8,21.9,0.06,Rain,Light Rain,110,2012-04-29 15:53:00
12:00 PM,71.6,71.6,100,30.08,9.0,ESE,18.4,24.2,0.00,Rain,Light Rain,110,2012-04-29 16:00:00
12:12 PM,71.6,69.8,94,30.08,10.0,East,16.1,-,0.01,Rain,Light Rain,100,2012-04-29 16:12:00
12:53 PM,73.0,70.0,90,30.08,10.0,ESE,17.3,20.7,0.01,Rain,Light Rain,110,2012-04-29 16:53:00
1:18 PM,71.6,71.6,100,30.07,10.0,ESE,16.1,-,0.00,Rain,Light Rain,120,2012-04-29 17:18:00
1:35 PM,73.4,71.6,94,30.06,10.0,East,15.0,23.0,0.00,Rain,Light Rain,100,2012-04-29 17:35:00
1:53 PM,73.0,71.1,93,30.06,10.0,East,16.1,25.3,0.00,Rain,Light Rain,100,2012-04-29 17:53:00
2:04 PM,73.4,71.6,94,30.06,10.0,East,19.6,-,0.00,Rain,Light Rain,100,2012-04-29 18:04:00
2:53 PM,73.0,70.0,90,30.05,10.0,ESE,13.8,23.0,0.00,Rain,Light Rain,110,2012-04-29 18:53:00
3:02 PM,73.4,69.8,88,30.04,10.0,ESE,15.0,-,0.00,Rain,Light Rain,110,2012-04-29 19:02:00
3:12 PM,71.6,71.6,100,30.04,10.0,East,17.3,24.2,0.00,Rain,Light Rain,90,2012-04-29 19:12:00
3:24 PM,73.4,69.8,88,30.03,10.0,ESE,16.1,-,0.00,Rain,Light Rain,110,2012-04-29 19:24:00
3:53 PM,72.0,69.1,91,30.03,10.0,East,16.1,24.2,0.00,Rain,Light Rain,100,2012-04-29 19:53:00
4:53 PM,72.0,68.0,87,30.02,10.0,East,16.1,25.3,0.00,Rain,Light Rain,90,2012-04-29 20:53:00
5:53 PM,71.1,69.1,93,30.01,10.0,East,17.3,25.3,0.01,Rain,Light Rain,80,2012-04-29 21:53:00
6:07 PM,71.6,69.8,94,30.01,10.0,East,17.3,25.3,0.00,Rain,Light Rain,90,2012-04-29 22:07:00
6:15 PM,71.6,69.8,94,30.01,10.0,East,18.4,26.5,0.01,Rain,Light Rain,90,2012-04-29 22:15:00
6:27 PM,71.6,69.8,94,30.01,10.0,East,16.1,26.5,0.01,Rain,Light Rain,80,2012-04-29 22:27:00
6:53 PM,71.1,70.0,96,30.01,10.0,East,17.3,24.2,0.02,Rain,Light Rain,80,2012-04-29 22:53:00
7:04 PM,71.6,69.8,94,30.01,10.0,East,19.6,27.6,0.00,Rain,Light Rain,80,2012-04-29 23:04:00
7:53 PM,72.0,69.1,91,30.03,10.0,East,18.4,27.6,0.00,,Mostly Cloudy,90,2012-04-29 23:53:00
8:07 PM,71.6,69.8,94,30.02,10.0,East,18.4,24.2,N/A,,Overcast,90,2012-04-30 00:07:00
8:35 PM,71.6,68.0,88,30.03,10.0,East,23.0,33.4,0.02,,Overcast,90,2012-04-30 00:35:00
8:53 PM,72.0,69.1,91,30.04,10.0,East,16.1,25.3,0.02,Rain,Light Rain,90,2012-04-30 00:53:00
10:53 PM,73.0,68.0,84,30.05,10.0,East,17.3,26.5,N/A,,Partly Cloudy,80,2012-04-30 02:53:00
11:53 PM,73.0,69.1,87,30.05,10.0,ENE,17.3,23.0,N/A,,Mostly Cloudy,70,2012-04-30 03:53:00